Estación de El Refugio

Ultimos registro cada 15 minutos 75
Estación Fecha / Hora Temperatura Humedad Lluvia Velocidad Dirección Radiación Presion
75 El Refugio 09-05-2026 19:15 15,2 57 0 0 262 0 1035,6
74 El Refugio 09-05-2026 19:00 16,1 52 0 0 262 0 1035,4
73 El Refugio 09-05-2026 18:45 16,1 54 0 0 262 0 1035,2
72 El Refugio 09-05-2026 18:30 15,9 57 0 0 262 0 1035
71 El Refugio 09-05-2026 18:15 17,2 56 0 0 262 0 1034,9
70 El Refugio 09-05-2026 18:00 18,6 50 0 0 262 0 1035,1
69 El Refugio 09-05-2026 17:45 20,3 52 0 0 262 5 1034,9
68 El Refugio 09-05-2026 17:15 22,2 40 0 0 262 72 1034,4
67 El Refugio 09-05-2026 17:00 22,3 38 0 0 262 120 1034,4
66 El Refugio 09-05-2026 16:45 21,9 40 0 0 262 171 1034,5
65 El Refugio 09-05-2026 16:30 21,8 39 0 0 262 79 1034,7
64 El Refugio 09-05-2026 16:15 21,8 38 0 0 262 70 1034,8
63 El Refugio 09-05-2026 16:00 22,2 37 0 0 262 56 1034,9
62 El Refugio 09-05-2026 15:45 22,5 37 0 0 262 139 1035
61 El Refugio 09-05-2026 15:30 22,3 38 0 0 262 392 1035,1
60 El Refugio 09-05-2026 15:15 22,1 41 0 0 264 422 1035,2
59 El Refugio 09-05-2026 15:00 21,9 37 0 0 38 459 1035
58 El Refugio 09-05-2026 14:45 21,6 40 0 0 38 485 1035,2
57 El Refugio 09-05-2026 14:30 21,3 44 0 0 38 513 1035,4
56 El Refugio 09-05-2026 14:15 20,6 47 0 0 39 538 1035,6
55 El Refugio 09-05-2026 14:00 20 48 0 0 39 559 1035,7
54 El Refugio 09-05-2026 13:45 19,9 50 0 0 39 577 1035,8
53 El Refugio 09-05-2026 13:30 19,1 53 0 0 39 587 1035,9
52 El Refugio 09-05-2026 13:15 18,2 54 0 0 39 598 1036,2
51 El Refugio 09-05-2026 13:00 17,7 55 0 0 39 598 1036,4
50 El Refugio 09-05-2026 12:45 16,9 59 0 0 39 599 1036,4
49 El Refugio 09-05-2026 12:30 16,6 59 0 0 39 599 1036,7
48 El Refugio 09-05-2026 12:15 16,2 63 0 0 39 596 1036,9
47 El Refugio 09-05-2026 12:00 15,5 64 0 0 39 591 1037,1
46 El Refugio 09-05-2026 11:45 14,7 67 0 0 39 578 1037,1
45 El Refugio 09-05-2026 11:30 14,1 68 0 0 41 563 1037,2
44 El Refugio 09-05-2026 11:15 13,9 68 0 0 11 543 1037,4
43 El Refugio 09-05-2026 11:00 13,6 69 0 0 207 524 1037,6
42 El Refugio 09-05-2026 10:45 13,3 70 0 0 207 496 1037,9
41 El Refugio 09-05-2026 10:30 12,8 73 0 0 207 468 1038
40 El Refugio 09-05-2026 10:15 12 75 0 0 207 434 1038
39 El Refugio 09-05-2026 10:00 11,2 78 0 0 207 399 1038
38 El Refugio 09-05-2026 09:45 10,6 81 0 0 207 364 1038,1
37 El Refugio 09-05-2026 09:30 10,1 83 0 0 207 323 1038,2
36 El Refugio 09-05-2026 09:15 9,8 82 0 0 207 285 1038,2
35 El Refugio 09-05-2026 09:00 9,6 83 0 0 207 227 1038,1
34 El Refugio 09-05-2026 08:45 8,9 88 0 0 207 181 1038,3
33 El Refugio 09-05-2026 08:30 8 90 0 0 207 137 1038,2
32 El Refugio 09-05-2026 08:15 6,8 93 0 0 207 86 1038
31 El Refugio 09-05-2026 08:00 6,7 91 0 0 207 12 1037,9
30 El Refugio 09-05-2026 07:45 6,9 91 0 0 207 7 1037,7
29 El Refugio 09-05-2026 07:30 7,2 91 0 0 207 0 1037,7
28 El Refugio 09-05-2026 07:15 7,3 91 0 0 207 0 1037,7
27 El Refugio 09-05-2026 07:00 7,6 92 0 0 207 0 1037,5
26 El Refugio 09-05-2026 06:45 7,6 92 0 0 207 0 1037,5
25 El Refugio 09-05-2026 06:15 7,8 92 0 0 323 0 1037,4
24 El Refugio 09-05-2026 06:00 7,8 92 0 0 323 0 1037,4
23 El Refugio 09-05-2026 05:45 7,8 92 0 0 351 0 1037,2
22 El Refugio 09-05-2026 05:30 7,8 92 0 0 350 0 1037,3
21 El Refugio 09-05-2026 05:15 7,8 92 0 0 3 0 1037,3
20 El Refugio 09-05-2026 05:00 7,9 92 0 0 121 0 1037,3
19 El Refugio 09-05-2026 04:30 7,9 91 0 0 142 0 1037,3
18 El Refugio 09-05-2026 04:15 8,2 90 0 0 261 0 1037,2
17 El Refugio 09-05-2026 04:00 8,3 90 0 0 269 0 1037,4
16 El Refugio 09-05-2026 03:45 8,4 90 0 0 213 0 1037,4
15 El Refugio 09-05-2026 03:30 8,6 89 0 0 32 0 1037,2
14 El Refugio 09-05-2026 03:15 8,8 87 0 0 185 0 1037,3
13 El Refugio 09-05-2026 03:00 8,9 88 0 0 139 0 1037,4
12 El Refugio 09-05-2026 02:45 8,6 90 0 0 190 0 1037,7
11 El Refugio 09-05-2026 02:30 8,6 89 0 0 190 0 1038
10 El Refugio 09-05-2026 02:15 8,3 89 0 0 190 0 1038,1
9 El Refugio 09-05-2026 02:00 8,7 89 0 0 190 0 1037,9
8 El Refugio 09-05-2026 01:45 8,7 87 0 0 190 0 1037,9
7 El Refugio 09-05-2026 01:30 8,9 87 0 0 190 0 1037,9
6 El Refugio 09-05-2026 01:15 9,1 84 0 0 190 0 1037,9
5 El Refugio 09-05-2026 01:00 9,7 82 0 0 190 0 1038,1
4 El Refugio 09-05-2026 00:45 10,3 81 0 0 190 0 1038,1
3 El Refugio 09-05-2026 00:30 10,5 79 0 0 190 0 1038
2 El Refugio 09-05-2026 00:15 10,9 78 0 0 190 0 1038,2
1 El Refugio 09-05-2026 00:00 11,1 78 0 0 161 0 1038,3